Wind_Speed
11 12 15 18 20 21 30 38 44 44 47 50 47 44 50 57 64 58 60 56 51 37 30 33 26 26 37 35 43 33 29 32 34 24 17 11 12 14 15 16 18 20 20 22 19 14 15 17 19 23 25 20 20 19
9 13 14 14 16 22 29 34 39 40 44 43 41 47 48 51 57 58 60 54 51 31 23 39 32 30 29 38 36 35 40 36 29 21 19 14 14 14 18 22 26 21 23 18 20 20 23 18 17 20 20 21 22 22
22 18 14 13 16 24 25 30 34 41 36 42 43 47 46 50 56 49 51 53 49 45 31 26 28 29 31 34 42 34 40 38 38 35 23 20 14 18 23 27 22 34 34 36 35 28 27 24 23 24 24 26 26 26
15 19 29 29 24 31 34 32 34 38 36 35 38 41 48 53 55 58 55 48 45 39 30 18 33 25 33 39 42 39 28 27 28 23 29 27 24 25 22 23 26 25 24 36 43 38 29 26 27 27 25 25 23 25
18 19 26 31 30 26 32 33 32 30 36 35 36 42 46 49 51 46 48 50 36 35 20 30 25 26 25 35 42 43 38 34 28 22 26 30 26 20 22 30 35 30 33 32 35 27 33 24 22 25 26 25 25 27
24 26 26 25 29 31 32 32 34 33 33 36 39 40 38 51 50 39 36 38 40 35 14 20 31 28 25 30 34 38 40 31 35 29 28 29 28 29 22 31 30 28 34 31 31 30 32 31 27 26 28 27 25 27
23 27 29 30 31 32 33 34 34 35 37 44 42 37 35 37 38 34 30 36 35 26 29 11 14 32 30 33 26 31 30 35 40 32 30 25 28 30 35 38 25 22 27 30 30 25 31 27 27 27 27 28 30 27
22 23 23 24 27 31 30 29 31 31 36 34 31 31 34 31 25 25 25 25 20 14 23 11 10 15 31 37 29 30 30 30 32 36 35 35 29 31 31 37 42 38 32 23 22 29 35 33 33 31 32 34 31 28
27 26 23 21 22 27 30 29 31 30 31 32 32 28 27 26 24 22 23 17 15 17 14 8 21 15 29 32 34 35 30 25 27 34 36 31 31 27 31 30 33 25 20 20 27 33 34 32 35 35 34 34 30 30
29 26 25 28 33 32 28 27 25 27 31 32 30 28 27 27 22 21 22 18 17 18 20 22 30 13 15 33 30 31 27 20 14 30 26 35 44 40 34 23 14 14 15 19 24 26 29 33 35 38 37 32 30 32
30 29 27 21 25 31 33 31 32 32 32 30 25 25 29 30 26 10 13 12 16 11 20 24 31 6 18 22 26 15 16 12 8 7 21 13 21 26 36 38 40 41 38 35 33 30 30 32 36 36 29 30 31 35
26 26 27 25 28 36 36 35 35 33 35 30 20 33 32 14 9 8 10 9 13 20 11 22 20 11 15 20 11 11 9 9 5 9 10 6 14 16 18 22 26 32 32 29 27 27 26 26 29 31 30 25 28 32
22 24 25 28 30 38 34 33 33 23 17 17 22 19 10 7 7 7 11 10 12 25 18 22 27 19 12 7 5 8 7 6 6 9 5 7 10 14 18 20 23 24 26 29 29 32 29 28 26 24 22 24 26 27
19 19 21 25 25 27 28 28 19 16 20 19 11 7 6 8 8 10 15 16 20 15 15 16 21 17 11 10 5 4 6 5 7 5 4 7 8 7 3 2 5 10 14 14 17 14 9 7 11 14 16 14 15 17
10 14 16 16 17 18 22 22 20 15 14 5 6 6 8 5 8 17 17 16 14 16 20 17 14 8 8 4 5 4 5 3 4 2 4 8 7 7 5 4 4 6 9 10 11 9 10 7 7 7 8 10 12 12
8 11 13 12 16 21 23 23 30 16 3 3 5 6 7 8 15 17 23 25 17 19 20 19 10 7 7 5 5 4 4 3 1 2 4 3 4 4 4 4 4 4 4 7 8 7 4 3 4 4 3 5 5 8
18 17 19 19 19 17 15 7 16 12 2 3 7 9 9 12 14 18 21 22 22 24 26 14 8 5 8 6 5 5 6 4 2 1 2 4 6 6 5 5 5 8 9 5 3 3 3 3 3 4 3 5 7 8
19 22 25 27 26 16 5 6 11 9 12 14 15 15 13 13 13 13 15 16 15 15 15 9 9 8 6 7 8 9 7 6 4 1 2 4 5 6 8 9 11 11 7 7 9 9 8 6 4 3 4 3 3 3
11 11 10 11 11 9 9 14 16 15 18 17 17 17 19 19 17 14 11 7 5 5 7 8 7 12 14 15 11 8 7 6 4 2 3 5 6 8 11 15 12 11 11 11 9 6 4 2 1 0 0 2 6 9
22 19 15 13 8 12 10 12 15 14 20 20 19 19 20 21 19 16 12 10 6 1 4 12 20 17 15 13 11 10 9 9 7 7 12 16 17 15 14 11 9 8 6 6 5 4 3 1 1 4 7 11 15 18
21 15 9 9 8 11 11 12 17 18 21 23 22 22 22 16 12 12 9 11 5 16 27 23 18 15 13 12 11 11 11 11 10 12 15 14 14 11 10 10 9 7 6 4 2 1 3 6 9 12 15 19 22 24
17 18 19 18 21 20 15 14 15 18 18 16 15 16 16 17 18 19 15 15 26 29 25 21 18 16 14 14 13 12 13 12 11 11 12 11 10 8 6 5 4 1 2 4 6 8 11 13 16 18 20 23 25 27
21 17 11 14 11 10 18 14 9 9 7 9 9 12 14 16 16 10 17 25 26 24 22 19 17 15 14 15 14 14 13 10 8 9 9 7 4 2 0 2 4 6 8 10 13 14 16 18 20 23 25 27 29 31
6 2 8 6 7 9 9 9 9 9 8 7 8 11 12 13 11 13 17 17 17 17 15 14 12 10 9 8 5 6 7 8 5 3 1 0 1 4 6 8 10 11 13 15 17 19 21 22 24 25 27 29 31 33
2 5 7 7 7 9 8 8 8 9 10 8 7 6 4 4 4 7 11 14 13 11 10 9 8 7 4 4 3 2 2 1 1 2 3 5 7 8 9 11 13 14 16 17 19 21 22 24 25 27 29 30 31 32
4 4 4 6 9 8 8 11 9 9 7 6 5 5 5 3 2 4 10 11 11 10 8 7 6 5 4 3 1 0 2 3 5 5 6 8 9 10 12 13 15 16 18 18 20 22 23 24 25 25 27 28 29 30
9 13 16 16 16 14 14 12 10 7 5 4 4 3 2 1 1 5 10 11 10 9 7 6 5 4 2 1 2 3 5 5 5 6 7 9 11 12 13 14 15 17 19 20 21 21 21 22 23 23 24 26 26 28
20 20 17 15 13 12 10 8 6 4 4 3 2 2 2 2 4 6 10 10 8 7 6 5 4 3 3 3 3 3 4 5 7 9 11 12 12 13 15 16 18 18 18 18 18 19 19 20 21 21 23 24 25 27
21 17 14 11 9 9 9 9 7 5 4 3 3 4 4 5 4 7 9 8 7 6 5 4 4 4 3 3 4 5 8 10 11 11 12 13 15 16 17 18 17 16 16 16 17 17 18 18 19 20 22 23 25 26
17 14 12 10 9 11 9 7 7 6 6 6 5 4 3 1 3 4 5 5 5 5 4 4 4 3 3 4 7 9 9 9 10 11 13 15 15 16 15 14 14 14 14 15 15 16 17 19 20 22 22 23 24 25
17 13 11 10 10 9 8 8 7 6 6 5 5 3 2 0 2 3 4 4 4 4 3 3 3 4 6 8 9 8 9 10 11 13 14 14 13 12 12 12 11 12 13 13 14 16 17 18 19 20 22 23 23 24
13 11 9 8 8 7 6 6 6 6 6 6 6 5 2 1 1 2 2 2 2 3 3 3 5 7 8 7 8 9 10 11 12 13 12 12 11 10 10 10 10 11 12 13 14 15 17 18 19 20 21 22 23 24
9 8 6 5 5 5 5 6 7 7 8 6 4 2 1 1 0 1 2 2 2 3 5 6 7 7 7 9 9 9 10 11 11 11 10 10 9 9 9 10 10 11 12 13 15 17 18 19 20 21 22 22 23 24
Wind_Direction
6 9 21 36 65 101 126 148 164 170 176 178 180 188 181 184 190 198 195 199 201 203 209 210 208 195 192 202 192 193 186 199 204 207 208 203 203 208 216 217 225 215 209 215 214 226 240 234 227 225 265 270 280 283
39 37 56 63 83 101 123 135 150 165 170 175 176 171 174 180 192 194 194 196 201 192 204 208 203 194 196 201 195 196 208 205 202 198 210 207 209 216 219 223 220 227 223 225 234 244 249 256 259 263 264 268 282 280
52 57 66 83 103 124 133 136 146 152 155 161 161 167 173 182 188 188 198 197 193 200 212 219 220 187 197 192 201 206 210 216 219 220 224 221 219 229 222 225 230 239 241 243 252 255 253 254 258 264 270 279 285 284
51 50 93 77 83 108 128 129 135 141 144 149 161 172 177 178 176 191 197 201 200 204 210 205 232 215 189 192 193 196 203 203 212 213 222 226 235 240 240 237 241 241 243 235 243 250 254 259 264 271 274 281 279 282
75 78 88 98 104 111 111 112 119 152 153 157 162 167 174 181 179 194 197 198 194 200 207 217 222 229 194 193 196 194 197 201 210 215 216 215 217 224 232 238 238 235 235 236 246 256 259 262 258 261 269 271 272 270
78 86 92 103 110 115 121 128 138 147 155 154 160 167 168 176 185 188 181 186 200 207 219 214 221 209 208 196 197 201 202 199 200 204 214 220 223 225 241 243 241 241 239 242 251 254 256 263 260 255 266 268 287 263
97 95 94 96 102 112 113 120 131 127 136 147 145 158 161 169 181 185 180 186 192 207 224 267 239 209 196 195 195 196 200 207 205 211 218 221 228 230 237 242 242 237 248 245 242 245 247 249 254 257 260 274 275 264
102 115 108 109 108 108 113 117 127 132 137 136 142 153 169 175 172 181 186 185 199 218 222 219 232 210 181 191 196 198 200 203 210 218 228 235 234 235 245 246 247 248 239 235 241 245 252 257 259 258 269 275 268 255
95 99 110 117 119 119 119 121 129 142 146 144 146 146 148 157 161 166 175 189 209 203 207 212 206 205 205 195 201 204 201 208 217 226 229 234 236 236 244 248 253 246 254 254 249 246 244 249 260 264 273 275 254 244
93 95 101 110 110 113 120 130 137 145 145 144 149 150 161 168 172 188 203 186 195 207 207 213 208 233 201 159 168 173 191 199 218 233 232 238 243 249 250 244 241 242 247 257 254 257 259 265 265 264 268 259 247 242
89 91 94 105 124 128 119 119 112 120 130 145 154 160 154 158 147 150 163 167 198 212 215 220 224 155 158 143 155 161 174 194 213 220 194 223 247 250 251 253 246 248 254 259 262 264 264 264 265 261 251 249 243 240
100 97 98 96 122 131 128 121 126 128 133 123 137 132 137 154 142 158 181 186 188 202 206 202 219 134 140 148 153 174 177 187 186 186 199 237 253 257 257 256 250 246 249 256 257 256 258 262 260 250 240 237 243 245
101 106 101 96 118 137 137 135 132 128 134 129 137 147 142 180 198 193 192 180 184 196 210 192 199 196 199 200 194 189 172 180 184 182 212 229 255 265 255 246 239 243 247 252 259 265 251 249 235 227 227 228 232 241
104 107 117 116 123 133 136 133 140 127 142 139 136 149 167 215 232 212 194 205 189 187 205 175 186 197 191 181 173 182 186 184 179 190 193 228 238 249 224 206 242 247 253 257 255 265 250 266 276 252 232 232 236 230
134 122 125 130 135 144 148 147 148 148 160 170 168 180 238 238 161 162 175 171 180 196 193 180 183 170 187 185 192 182 169 159 144 141 280 270 257 255 284 302 280 253 246 251 262 256 241 223 216 203 198 202 213 228
184 167 152 169 179 180 185 184 175 152 229 238 215 167 146 143 143 159 171 174 173 173 173 174 184 195 185 182 161 144 139 88 350 301 301 296 206 195 207 202 211 203 174 168 164 156 154 203 260 276 265 225 233 252
165 179 182 174 147 130 130 147 216 225 211 82 85 111 123 131 128 149 173 189 193 186 182 186 173 153 140 151 122 126 121 114 116 221 202 182 176 176 176 165 159 150 157 157 135 113 130 185 196 186 208 242 262 264
125 133 133 146 153 146 121 36 82 91 87 85 77 79 81 88 101 131 134 154 169 181 182 163 145 149 125 113 113 123 127 119 106 103 191 196 179 167 159 155 151 157 148 126 125 135 140 152 184 229 258 255 251 265
144 141 126 112 127 110 96 80 93 81 74 73 69 67 69 66 66 71 81 99 117 150 143 119 95 100 107 121 122 124 135 123 91 115 143 146 139 135 135 135 130 120 120 122 126 137 153 184 202 202 5 306 297 295
128 128 104 128 124 111 86 95 88 88 82 79 82 79 73 67 59 56 61 68 67 143 97 89 97 104 113 118 120 122 122 115 118 140 136 125 120 122 124 123 125 123 130 130 129 121 105 78 298 284 283 285 288 290
123 126 114 103 102 106 101 112 104 93 85 81 77 70 65 64 58 56 58 53 62 90 94 91 90 93 94 97 102 106 108 106 133 146 132 127 124 130 128 126 118 117 116 107 89 332 298 291 290 290 292 292 293 293
104 92 90 102 95 89 92 99 102 99 97 85 78 70 66 64 68 67 79 84 95 96 97 96 93 90 91 96 98 107 112 130 139 133 128 125 129 131 130 126 119 115 314 305 303 300 298 297 297 297 297 297 298 298
96 100 95 82 73 90 106 102 94 97 101 84 81 67 63 63 64 75 86 94 100 101 100 98 97 99 106 109 115 120 120 123 140 140 130 130 130 127 71 330 316 312 309 309 307 306 306 306 305 304 304 303 303 303
95 30 66 66 79 107 107 99 96 91 89 82 74 75 73 80 87 93 101 107 111 111 113 112 107 104 104 106 123 128 133 128 123 113 130 189 319 315 315 315 315 314 313 312 310 309 308 307 307 307 307 307 307 307
168 65 79 78 90 105 103 98 99 102 97 85 81 77 80 82 86 114 124 128 124 127 130 128 125 127 143 162 164 163 148 112 354 325 332 329 325 318 310 309 310 311 311 310 310 310 311 311 312 312 312 313 314 314
97 67 88 98 102 102 106 106 104 104 101 93 91 103 99 95 106 148 161 156 152 156 160 160 167 170 163 166 164 45 340 327 319 316 317 315 316 317 318 317 316 315 316 316 317 317 317 318 319 320 321 322 323 324
96 92 97 103 103 108 108 105 104 98 91 87 97 87 60 54 212 180 183 178 175 176 176 179 183 186 192 251 293 297 298 302 308 315 317 316 316 317 319 321 323 322 322 321 321 323 325 326 328 330 331 332 333 334
119 113 108 104 104 100 103 106 100 81 78 66 42 359 331 297 284 200 189 189 189 188 192 201 217 245 274 284 291 306 317 323 323 323 324 324 325 326 325 323 323 323 325 327 330 332 334 335 337 339 341 343 344 344
113 111 104 103 103 104 94 86 80 72 50 28 354 326 306 295 265 201 192 191 197 207 221 242 260 268 272 291 309 317 320 320 320 320 324 327 328 328 328 328 329 330 333 336 339 340 342 344 346 346 347 349 350 351
104 99 99 96 91 85 79 71 57 41 29 16 3 354 345 61 159 190 204 212 219 228 236 238 239 241 272 298 308 313 316 321 325 326 327 327 328 328 329 330 332 334 338 340 342 345 348 350 351 352 351 351 351 352
100 94 81 72 74 72 62 46 29 18 9 1 359 5 12 95 198 211 222 227 230 233 223 220 248 280 299 308 314 318 320 322 323 325 326 327 328 329 331 332 335 337 339 342 346 349 350 351 351 352 352 352 352 351
91 81 70 60 63 55 40 25 10 1 354 349 341 328 320 221 199 212 197 195 202 220 238 276 301 310 315 316 317 318 320 323 326 328 328 329 331 333 336 339 340 341 343 345 347 348 349 349 350 349 349 350 351 353
87 73 60 52 45 35 19 12 6 354 343 347 2 11 91 137 199 225 253 248 247 286 302 309 311 313 316 317 318 319 322 324 326 328 329 329 332 338 343 343 342 342 344 346 347 347 346 345 344 344 344 346 347 347
Height
2744 2739 2731 2723 2716 2712 2713 2722 2736 2751 2767 2781 2796 2810 2824 2840 2853 2865 2880 2893 2905 2915 2922 2927 2934 2939 2950 2959 2966 2974 2986 2989 2995 2999 3002 3006 3007 3010 3012 3015 3015 3019 3021 3022 3027 3027 3027 3029 3032 3034 3035 3036 3037 3037
2747 2743 2737 2733 2730 2729 2732 2739 2749 2760 2773 2787 2798 2812 2827 2842 2854 2866 2879 2890 2902 2914 2919 2923 2927 2936 2946 2955 2964 2968 2974 2980 2984 2992 2996 3001 3001 3004 3008 3009 3013 3014 3015 3018 3020 3018 3020 3023 3026 3027 3028 3030 3030 3030
2755 2750 2745 2741 2740 2742 2747 2753 2761 2771 2781 2792 2804 2818 2832 2844 2855 2868 2877 2889 2901 2910 2919 2923 2926 2931 2940 2949 2959 2965 2971 2976 2979 2985 2990 2995 2995 2999 3001 3002 3006 3006 3009 3011 3015 3013 3015 3018 3020 3021 3022 3023 3023 3023
2764 2760 2755 2753 2752 2754 2759 2764 2771 2780 2790 2801 2813 2824 2836 2847 2858 2867 2878 2890 2903 2911 2918 2922 2922 2927 2934 2941 2947 2957 2965 2969 2976 2980 2984 2987 2991 2994 2995 2998 2998 3002 3001 3004 3003 3006 3008 3010 3013 3015 3015 3016 3016 3015
2773 2771 2768 2766 2767 2770 2774 2778 2784 2793 2803 2812 2820 2830 2841 2850 2860 2869 2883 2894 2903 2914 2915 2919 2922 2924 2928 2936 2943 2950 2958 2965 2971 2974 2976 2981 2985 2988 2988 2989 2987 2990 2994 2995 2994 3001 3003 3005 3006 3007 3007 3008 3008 3007
2784 2782 2780 2780 2781 2783 2787 2791 2797 2804 2812 2819 2828 2837 2844 2853 2864 2876 2886 2894 2902 2910 2917 2918 2920 2923 2927 2932 2938 2945 2951 2958 2964 2968 2972 2974 2978 2983 2981 2977 2981 2984 2986 2988 2990 2993 2995 2997 2998 2999 3000 3000 2999 2999
2793 2793 2793 2793 2794 2796 2799 2803 2808 2813 2820 2828 2836 2844 2853 2863 2874 2882 2890 2897 2903 2911 2917 2920 2920 2920 2924 2930 2936 2941 2948 2953 2958 2962 2965 2969 2973 2974 2971 2967 2975 2976 2978 2981 2982 2985 2987 2989 2990 2991 2991 2991 2991 2991
2800 2800 2801 2803 2806 2809 2812 2815 2819 2825 2831 2840 2847 2854 2863 2871 2878 2886 2894 2901 2907 2912 2916 2919 2919 2918 2921 2926 2932 2937 2943 2949 2953 2957 2960 2963 2967 2965 2958 2962 2965 2967 2971 2973 2975 2977 2979 2981 2982 2982 2982 2982 2982 2982
2810 2810 2811 2812 2815 2818 2821 2825 2830 2834 2840 2846 2853 2860 2869 2877 2884 2889 2896 2902 2906 2911 2911 2912 2915 2916 2917 2923 2928 2934 2940 2945 2947 2949 2953 2958 2956 2949 2952 2956 2958 2962 2963 2966 2968 2970 2971 2971 2972 2972 2972 2972 2972 2973
2820 2820 2821 2822 2823 2825 2828 2832 2835 2840 2846 2854 2861 2869 2875 2882 2887 2894 2899 2901 2903 2906 2909 2909 2909 2908 2907 2908 2921 2928 2935 2940 2941 2944 2945 2945 2939 2946 2950 2953 2954 2955 2957 2959 2959 2960 2962 2962 2962 2962 2962 2962 2963 2964
2832 2830 2829 2830 2832 2834 2837 2841 2845 2848 2854 2861 2867 2871 2878 2883 2889 2892 2897 2900 2901 2901 2902 2906 2908 2906 2908 2910 2918 2925 2931 2933 2934 2933 2933 2934 2934 2938 2937 2939 2942 2945 2947 2949 2950 2951 2951 2951 2951 2951 2951 2952 2953 2955
2842 2842 2840 2839 2839 2843 2846 2851 2855 2860 2863 2868 2871 2876 2881 2885 2889 2893 2895 2898 2897 2899 2901 2903 2903 2903 2907 2913 2917 2922 2923 2926 2927 2929 2931 2929 2931 2931 2930 2930 2931 2934 2937 2939 2941 2942 2942 2942 2942 2942 2943 2943 2945 2948
2850 2851 2851 2851 2852 2853 2855 2859 2864 2868 2871 2874 2878 2882 2884 2887 2888 2888 2889 2890 2891 2892 2899 2903 2908 2911 2913 2914 2917 2918 2920 2923 2924 2926 2926 2926 2925 2924 2924 2925 2926 2929 2931 2933 2934 2934 2933 2933 2933 2934 2935 2935 2936 2938
2857 2858 2859 2861 2863 2865 2866 2869 2872 2874 2877 2880 2883 2885 2887 2887 2885 2883 2885 2886 2890 2897 2900 2903 2908 2911 2914 2914 2914 2915 2917 2919 2921 2922 2922 2921 2921 2921 2921 2921 2922 2924 2926 2927 2928 2928 2929 2928 2929 2929 2930 2931 2932 2934
2863 2865 2866 2868 2869 2873 2875 2876 2878 2880 2882 2883 2885 2885 2885 2882 2881 2882 2884 2889 2895 2902 2903 2905 2908 2910 2910 2912 2912 2913 2915 2916 2917 2919 2919 2919 2919 2920 2920 2920 2921 2921 2923 2923 2924 2925 2926 2926 2927 2928 2928 2929 2931 2933
2864 2866 2869 2871 2873 2876 2877 2879 2880 2883 2885 2885 2884 2883 2882 2882 2881 2883 2885 2889 2894 2898 2901 2905 2906 2907 2907 2908 2910 2911 2914 2915 2917 2917 2917 2917 2918 2918 2919 2919 2920 2921 2921 2922 2923 2925 2926 2927 2928 2929 2930 2932 2932 2933
2866 2868 2871 2872 2875 2878 2881 2883 2883 2884 2884 2884 2884 2883 2883 2883 2883 2884 2887 2890 2893 2896 2898 2900 2901 2902 2905 2906 2909 2910 2912 2914 2915 2916 2916 2917 2917 2917 2918 2919 2920 2921 2921 2922 2924 2925 2927 2928 2930 2931 2932 2932 2933 2933
2871 2873 2873 2875 2878 2879 2881 2882 2882 2885 2886 2886 2885 2885 2885 2885 2885 2886 2887 2889 2892 2893 2895 2896 2898 2900 2902 2906 2909 2911 2912 2913 2914 2915 2916 2916 2917 2917 2918 2919 2920 2920 2922 2923 2925 2926 2927 2929 2930 2931 2932 2932 2933 2933
2874 2877 2879 2880 2881 2882 2883 2885 2886 2887 2889 2888 2888 2888 2887 2887 2887 2887 2888 2890 2891 2892 2894 2894 2897 2900 2903 2907 2909 2911 2912 2913 2914 2915 2915 2916 2917 2918 2919 2920 2921 2922 2923 2924 2926 2927 2928 2929 2930 2930 2931 2931 2932 2932
2877 2880 2881 2882 2884 2885 2886 2890 2890 2891 2894 2895 2893 2892 2892 2891 2892 2892 2892 2893 2893 2894 2894 2899 2902 2906 2908 2909 2911 2912 2914 2915 2916 2917 2917 2917 2918 2920 2921 2922 2923 2924 2924 2925 2926 2927 2927 2928 2929 2929 2929 2929 2929 2928
2882 2884 2886 2886 2887 2887 2889 2893 2894 2897 2898 2898 2898 2898 2896 2897 2896 2895 2894 2894 2895 2894 2900 2905 2909 2911 2912 2912 2913 2914 2916 2917 2919 2921 2920 2920 2921 2922 2923 2923 2924 2925 2925 2926 2926 2927 2927 2928 2927 2927 2926 2925 2924 2922
2887 2889 2889 2892 2892 2892 2895 2897 2899 2901 2903 2904 2904 2904 2903 2903 2902 2900 2901 2898 2898 2904 2907 2911 2913 2914 2915 2916 2917 2918 2919 2921 2923 2923 2923 2924 2924 2925 2925 2925 2925 2926 2926 2926 2926 2926 2926 2925 2924 2923 2921 2920 2918 2916
2891 2893 2895 2894 2896 2900 2904 2903 2904 2904 2906 2907 2907 2907 2908 2907 2907 2908 2907 2907 2910 2912 2915 2917 2919 2920 2921 2920 2921 2921 2923 2924 2924 2924 2924 2925 2925 2925 2925 2926 2926 2925 2925 2925 2924 2923 2922 2920 2919 2917 2915 2913 2910 2907
2896 2898 2897 2898 2899 2902 2905 2906 2906 2907 2908 2909 2910 2911 2911 2911 2913 2913 2913 2915 2916 2918 2919 2921 2922 2923 2924 2925 2925 2925 2925 2925 2925 2926 2925 2925 2925 2925 2925 2924 2923 2923 2922 2921 2920 2919 2917 2915 2913 2911 2908 2905 2902 2898
2902 2901 2902 2902 2903 2906 2907 2908 2909 2910 2911 2912 2913 2913 2914 2915 2915 2916 2918 2919 2919 2921 2922 2923 2924 2925 2926 2926 2926 2926 2926 2926 2926 2926 2925 2925 2925 2924 2923 2922 2922 2920 2919 2918 2916 2914 2911 2909 2906 2903 2900 2896 2892 2887
2900 2902 2904 2905 2906 2908 2909 2911 2913 2913 2914 2915 2915 2915 2916 2916 2916 2917 2918 2919 2920 2921 2923 2924 2925 2925 2925 2926 2926 2926 2926 2925 2925 2924 2924 2923 2922 2922 2920 2919 2918 2917 2915 2912 2910 2907 2905 2902 2898 2894 2891 2887 2883 2879
2902 2907 2907 2908 2909 2911 2912 2914 2915 2916 2916 2917 2917 2917 2917 2916 2916 2917 2918 2918 2920 2921 2922 2923 2924 2924 2925 2925 2925 2924 2924 2924 2924 2923 2922 2921 2920 2919 2917 2915 2913 2911 2909 2906 2904 2901 2898 2895 2892 2888 2884 2880 2876 2872
2906 2910 2912 2914 2914 2915 2915 2916 2917 2917 2918 2918 2918 2918 2917 2917 2917 2916 2917 2918 2919 2920 2921 2922 2923 2923 2923 2923 2923 2923 2922 2922 2921 2920 2918 2917 2916 2914 2913 2911 2908 2906 2903 2901 2899 2896 2893 2890 2887 2883 2879 2875 2871 2867
2911 2913 2915 2915 2916 2917 2917 2918 2918 2919 2919 2918 2918 2917 2916 2915 2915 2915 2916 2917 2918 2919 2920 2920 2921 2921 2921 2921 2920 2920 2919 2919 2918 2916 2915 2913 2912 2910 2908 2905 2903 2901 2899 2897 2894 2892 2889 2886 2883 2880 2876 2872 2868 2863
2914 2915 2917 2917 2918 2918 2919 2919 2919 2919 2918 2917 2917 2916 2915 2914 2914 2915 2916 2917 2917 2918 2918 2918 2919 2919 2919 2919 2919 2918 2917 2916 2915 2914 2912 2910 2908 2906 2904 2902 2900 2898 2896 2894 2891 2889 2886 2883 2879 2876 2872 2868 2864 2860
2916 2917 2918 2918 2918 2919 2919 2919 2918 2918 2918 2917 2916 2915 2915 2914 2914 2915 2915 2916 2916 2917 2917 2917 2918 2918 2918 2917 2916 2915 2914 2913 2912 2910 2909 2907 2905 2903 2901 2899 2898 2896 2894 2892 2889 2886 2883 2881 2877 2874 2870 2866 2862 2857
2918 2919 2920 2919 2920 2920 2919 2919 2919 2918 2916 2915 2914 2914 2913 2913 2914 2914 2914 2915 2915 2916 2916 2916 2916 2915 2915 2914 2913 2912 2911 2910 2908 2907 2905 2904 2902 2901 2899 2897 2896 2894 2892 2890 2887 2885 2882 2878 2875 2872 2868 2864 2860 2855
2920 2920 2921 2920 2920 2920 2919 2919 2917 2916 2915 2914 2913 2913 2913 2913 2913 2914 2914 2914 2915 2915 2914 2914 2914 2913 2912 2912 2911 2909 2908 2907 2906 2904 2903 2901 2900 2899 2897 2896 2894 2892 2890 2888 2885 2882 2879 2876 2873 2869 2865 2861 2857 2852